[[{"header":{"parameterUnit":"m.s-1","parameterCategory":1,"la1":30.2991,"la2":30.254,"lo1":-89.0895,"lo2":-89.0444,"dy":0.0017,"dx":0.0017,"nx":28,"ny":28,"refTime":"2024-06-26T21:00:00:Z","depth":0,"parameterNumber":2,"parameterNumberName":"U-component_of_WINDS"},"data":[0,0,0,0,0,0,0,0,0,0,0,0,0,0,0,0,0,0,0,0,0,0,0,0,0,0,0,0,0,0,0,0,0,0,0,0,0,0,0,0,0,0,0,0,0,0,0,0,0,0,0,0,0,0,0,0,0,0,7.4985,7.4987,0,7.5216,7.5218,7.5221,7.5167,7.5163,7.5158,7.5154,7.5393,7.5403,7.5414,0,0,0,0,0,0,0,0,0,0,0,0,0,7.4497,7.4506,7.4984,7.4987,7.499,7.5215,7.5219,7.5222,7.5168,7.5162,7.5157,7.5152,7.539,7.5402,7.5415,0,0,0,0,0,0,0,0,0,0,0,0,0,7.4716,7.4509,7.4984,7.499,7.4993,7.5215,7.5219,7.5223,7.5169,7.5162,7.5156,7.5149,7.5385,7.5401,7.5416,7.5646,0,0,7.5464,7.5471,0,0,0,0,0,0,0,0,7.4704,7.4734,7.4986,7.499,7.4994,7.5156,7.5134,7.5365,7.5171,7.5102,7.5154,7.5146,7.532,7.534,7.5398,7.5657,7.5668,7.5466,7.5475,7.5482,7.5486,0,0,0,0,0,0,0,7.4689,7.4724,7.5076,7.499,7.4995,7.4982,7.5006,7.5178,7.5245,7.5108,7.5104,7.5132,7.532,7.5383,7.5404,7.5671,7.5465,7.5479,7.5489,7.5495,7.6129,7.6136,0,0,0,0,0,0,7.467,7.4712,7.5069,7.5083,7.483,7.4996,7.5023,7.5111,7.5243,7.5257,7.5138,7.5129,7.536,7.5385,7.5412,7.5688,7.5482,7.5497,7.5506,7.6122,7.613,7.6138,0,0,0,0,0,0,7.466,7.4703,7.5059,7.4897,7.4941,7.5012,7.511,7.5119,7.5181,7.5266,7.5278,7.519,7.5355,7.539,7.5588,7.5695,7.5504,7.5518,7.6113,7.6124,7.6135,7.6243,0,0,0,0,0,0,7.4646,7.4699,7.4787,7.4899,7.495,7.5231,7.5117,7.5128,7.5208,7.5199,7.5318,7.5331,7.5353,7.5565,7.5603,7.5713,7.553,7.6103,7.6118,7.6131,7.623,7.6256,7.6279,0,0,0,0,0,7.4629,7.4809,7.4792,7.4835,7.5061,7.5238,7.5267,7.5287,7.5217,7.5306,7.536,7.5327,7.5678,7.5585,7.5629,7.5745,7.6097,7.6114,7.613,7.6219,7.6251,7.6278,0,0,0,0,0,0,7.4709,7.4824,7.4806,7.5028,7.5123,7.5228,7.534,7.5321,7.5439,7.5425,7.5447,7.5474,7.5676,7.5731,7.5626,7.5974,7.5877,7.5903,7.593,7.5961,7.5985,7.5967,7.5543,0,0,0,0,0,7.4752,7.4886,7.4979,7.5166,7.5215,7.527,7.5347,7.5355,7.5455,7.5495,7.5564,7.5663,7.5795,7.5882,7.6008,7.6238,7.6263,7.634,7.6364,7.6384,7.6405,7.6529,7.6564,7.6193,7.6193,7.6193,0,0,7.4843,7.4923,7.5006,7.5184,7.5259,7.5396,7.5304,7.5454,7.5556,7.5518,7.5708,7.5763,7.5875,7.6089,7.6187,7.6141,7.6514,7.6405,7.642,7.6431,7.655,7.6585,7.6616,7.6204,7.6202,7.6201,0,0,7.5078,7.5153,7.5315,7.5392,7.5506,7.5542,7.5581,7.5689,7.5723,7.5915,7.5889,7.6011,7.6239,7.6319,7.6389,7.6655,7.6628,7.6696,7.6823,7.6943,7.6972,7.6998,7.7091,7.7124,7.6718,7.6718,7.6718,0,7.5177,7.5382,7.5401,7.5553,7.5632,7.5604,7.5768,7.5842,7.5992,7.6047,7.5994,7.6278,7.6351,7.6583,7.6648,7.6707,7.6751,7.6681,7.6967,7.6993,7.7017,7.7106,7.7141,7.6725,7.6725,7.6724,7.6723,0,7.5497,7.564,7.5758,7.5902,7.5994,7.6152,7.6194,7.6286,7.6286,7.6327,7.6522,7.6609,7.6751,7.6808,7.681,7.704,7.7008,7.6961,7.6863,7.706,7.7143,7.7177,7.6736,7.6733,7.6731,7.6729,0,0,7.5787,7.594,7.5982,7.6047,7.6171,7.6282,7.6438,7.6577,7.6654,7.6759,7.6889,7.7083,7.7039,7.712,7.7131,7.7237,7.7439,7.7177,7.718,7.722,7.7695,7.7728,7.7767,7.7423,7.743,7.7435,7.7685,0,7.6031,7.6305,7.6327,7.6574,7.6705,7.6681,7.6817,7.6908,7.6951,7.7069,7.7116,7.7252,7.7186,7.7234,7.7338,7.7392,7.7534,7.7375,7.7543,7.7549,7.7513,7.7811,7.7846,7.8077,7.7718,7.7723,7.7728,0,7.6352,7.6465,7.6725,7.6829,7.6885,7.7007,7.7135,7.7248,7.7351,7.7375,7.7464,7.7461,7.7621,7.752,7.774,7.7631,7.7702,7.774,7.7749,7.7763,7.7648,7.783,7.8152,7.8186,7.7779,7.7775,7.7772,0,7.6535,7.6752,7.6935,7.6991,7.7118,7.7204,7.7261,7.7357,7.7439,7.7551,7.7604,7.7735,7.7806,7.7907,7.7939,7.7863,7.8158,7.806,7.8181,7.818,7.8241,7.8237,7.8576,7.8292,7.8292,7.8291,7.829,0,7.6803,7.6962,7.7018,7.713,7.7307,7.7332,7.7506,7.7559,7.7644,7.7766,7.7755,7.7869,7.7905,7.8027,7.8053,7.823,7.8263,7.8286,7.8291,7.8286,7.8282,7.833,7.8314,7.83,7.8298,7.8296,7.8295,0,7.7036,7.708,7.7277,7.7381,7.7411,7.7536,7.7625,7.7733,7.7774,7.7929,7.7966,7.8031,7.8173,7.8215,7.8386,7.8404,7.8611,7.8602,7.8575,7.8575,7.8692,7.8679,7.9072,7.9124,7.8809,7.8812,7.8814,0,7.7203,7.7324,7.7441,7.7521,7.7581,7.7711,7.7794,7.7823,7.7909,7.8035,7.8128,7.8268,7.8381,7.8609,7.8671,7.8801,7.8794,7.8923,7.8814,7.8804,7.8793,7.8784,7.8795,7.8942,7.8946,7.8949,7.8951,0,7.7493,7.7509,7.7628,7.7756,7.7855,7.7957,7.8055,7.8122,7.8164,7.8263,7.8407,7.8495,7.8669,7.8807,7.8939,7.8998,7.8982,7.8985,7.9019,7.9014,7.8992,7.9002,7.8628,7.8975,7.8973,7.8971,7.897,7.8969,7.7696,7.7802,7.79,7.8034,7.811,7.8202,7.8308,7.8362,7.8482,7.8625,7.8636,7.8791,7.889,7.9066,7.9132,7.9254,7.9217,7.9267,7.9279,7.9291,7.9299,7.8975,7.9279,7.9278,7.9278,7.9277,7.9277,0,7.7984,7.8046,7.8168,7.8305,7.841,7.8385,7.8492,7.8581,7.8718,7.8812,7.8923,7.9088,7.9222,7.9296,7.9429,7.9513,7.9509,7.9547,7.9539,7.9553,7.9326,7.9282,7.9548,7.9548,7.9548,7.9548,7.9548,7.9548,7.8146,7.8323,7.835,7.8565,7.8626,7.8777,7.884,7.8925,7.8999,7.9184,7.9295,7.9341,7.9427,7.9566,7.9688,7.9706,7.9755,7.9797,7.9811,7.9597,7.9569,7.9542,7.95,7.9808,7.9809,8.0027,8.0029,8.003]},{"header":{"parameterUnit":"m.s-1","parameterCategory":1,"la1":30.2991,"la2":30.254,"lo1":-89.0895,"lo2":-89.0444,"dy":0.0017,"dx":0.0017,"nx":28,"ny":28,"refTime":"2024-06-26T21:00:00:Z","depth":0,"parameterNumber":3,"parameterNumberName":"V-component_of_WINDS"},"data":[0,0,0,0,0,0,0,0,0,0,0,0,0,0,0,0,0,0,0,0,0,0,0,0,0,0,0,0,0,0,0,0,0,0,0,0,0,0,0,0,0,0,0,0,0,0,0,0,0,0,0,0,0,0,0,0,0,0,2.0669,2.067,0,2.0759,2.076,2.0761,2.076,2.0759,2.0757,2.0756,2.0844,2.0848,2.0851,0,0,0,0,0,0,0,0,0,0,0,0,0,2.0491,2.0495,2.0669,2.067,2.0671,2.0758,2.076,2.0761,2.076,2.0759,2.0757,2.0756,2.0843,2.0847,2.0851,0,0,0,0,0,0,0,0,0,0,0,0,0,2.0573,2.0496,2.0668,2.0681,2.0683,2.0758,2.076,2.0761,2.076,2.0758,2.0757,2.0755,2.0842,2.0847,2.0852,2.0919,0,0,2.0868,2.087,0,0,0,0,0,0,0,0,2.0569,2.058,2.0678,2.068,2.0683,2.0746,2.0729,2.0814,2.0761,2.0731,2.0756,2.0754,2.0813,2.082,2.0841,2.0923,2.0927,2.0868,2.0871,2.0873,2.0875,0,0,0,0,0,0,0,2.0563,2.0576,2.0704,2.068,2.0682,2.0681,2.069,2.0745,2.078,2.0733,2.0734,2.0744,2.0814,2.0836,2.0843,2.0928,2.0868,2.0873,2.0876,2.0878,2.1068,2.107,0,0,0,0,0,0,2.0555,2.0571,2.0701,2.0707,2.062,2.0685,2.0696,2.0728,2.078,2.0786,2.0746,2.0744,2.0828,2.0837,2.0846,2.0927,2.0873,2.0878,2.0881,2.1066,2.1068,2.1071,0,0,0,0,0,0,2.0552,2.0567,2.0698,2.0639,2.0656,2.069,2.0726,2.073,2.0753,2.0789,2.0795,2.0762,2.0827,2.0839,2.0901,2.093,2.0881,2.0885,2.1064,2.1067,2.1069,2.109,0,0,0,0,0,0,2.0547,2.0566,2.0593,2.064,2.0659,2.0753,2.0727,2.0733,2.0762,2.076,2.0806,2.0812,2.0826,2.0893,2.0906,2.0936,2.0889,2.1061,2.1065,2.1069,2.1087,2.1094,2.1099,0,0,0,0,0,2.054,2.0595,2.0594,2.061,2.0694,2.0754,2.0765,2.0781,2.0764,2.0791,2.0814,2.0811,2.0925,2.0899,2.0914,2.0946,2.1059,2.1064,2.1068,2.1084,2.1092,2.1099,0,0,0,0,0,0,2.0549,2.0601,2.0601,2.0673,2.0709,2.0754,2.0788,2.0789,2.083,2.0827,2.0844,2.0854,2.0916,2.0937,2.0908,2.1013,2.099,2.0997,2.0997,2.1005,2.1011,2.1004,2.0894,0,0,0,0,0,2.056,2.0606,2.0648,2.0707,2.0725,2.0754,2.0781,2.079,2.0828,2.0843,2.0871,2.0907,2.095,2.0979,2.1021,2.109,2.1099,2.1119,2.1125,2.113,2.1136,2.1172,2.1181,2.1085,2.1085,2.1085,0,0,2.0581,2.0615,2.0643,2.071,2.0739,2.0785,2.0767,2.0816,2.085,2.085,2.0911,2.0932,2.0973,2.1038,2.1068,2.1058,2.1164,2.1135,2.1139,2.1143,2.1178,2.1187,2.1195,2.1088,2.1087,2.1087,0,0,2.0644,2.0675,2.0728,2.0757,2.0802,2.0821,2.0833,2.0878,2.0892,2.0953,2.0954,2.0993,2.1069,2.1097,2.1122,2.1194,2.1191,2.1207,2.1238,2.1273,2.1281,2.1288,2.1312,2.1321,2.1213,2.1213,2.1213,0,2.0665,2.0736,2.0754,2.0804,2.0832,2.0835,2.0887,2.0914,2.097,2.0989,2.0976,2.107,2.1098,2.1169,2.1186,2.1207,2.122,2.1202,2.1279,2.1286,2.1292,2.1316,2.1325,2.1215,2.1214,2.1214,2.1214,0,2.0759,2.0808,2.0844,2.09,2.0932,2.0982,2.1006,2.1036,2.1042,2.1061,2.1122,2.1155,2.1203,2.1221,2.1227,2.1293,2.1285,2.1275,2.1252,2.1303,2.1325,2.1334,2.1217,2.1216,2.1216,2.1215,0,0,2.0831,2.0895,2.0908,2.0932,2.0981,2.1019,2.1068,2.1117,2.1142,2.118,2.122,2.1283,2.1275,2.1302,2.1311,2.1342,2.1396,2.1329,2.133,2.1339,2.1468,2.1475,2.1485,2.1395,2.1396,2.1398,2.1465,0,2.0899,2.0989,2.1006,2.1083,2.1128,2.113,2.1173,2.1207,2.1226,2.1264,2.1284,2.1328,2.1314,2.133,2.1361,2.1383,2.1422,2.1378,2.1431,2.1433,2.1421,2.1497,2.1505,2.1566,2.1474,2.1475,2.1476,0,2.099,2.1032,2.1114,2.1157,2.1176,2.1214,2.1259,2.1297,2.1334,2.1345,2.1376,2.1381,2.143,2.1405,2.1472,2.1442,2.1464,2.1478,2.1481,2.1486,2.1457,2.1504,2.1586,2.1595,2.149,2.1489,2.1488,0,2.1033,2.111,2.1169,2.1189,2.124,2.1267,2.1289,2.1325,2.1353,2.1391,2.1409,2.1452,2.1476,2.1508,2.1524,2.1504,2.159,2.1566,2.1599,2.1598,2.1616,2.1615,2.1703,2.1632,2.1632,2.1631,2.1631,0,2.1107,2.1157,2.1189,2.1225,2.128,2.1298,2.1351,2.1373,2.1404,2.1443,2.1447,2.1483,2.1502,2.154,2.1553,2.1606,2.1616,2.1625,2.1628,2.1625,2.1624,2.164,2.1635,2.1634,2.1633,2.1633,2.1632,0,2.1165,2.1188,2.1252,2.1295,2.1307,2.1346,2.1382,2.1416,2.1434,2.1483,2.1495,2.1523,2.1568,2.1587,2.1642,2.165,2.171,2.171,2.1698,2.1699,2.173,2.1727,2.1831,2.1845,2.1765,2.1766,2.1767,0,2.121,2.1249,2.1296,2.1323,2.1346,2.139,2.1418,2.1436,2.1465,2.151,2.1538,2.1583,2.162,2.1692,2.1716,2.1757,2.1757,2.1791,2.1764,2.1759,2.1757,2.1754,2.1757,2.1796,2.1797,2.1797,2.1798,0,2.1288,2.1297,2.1339,2.1384,2.1418,2.1454,2.149,2.1511,2.1534,2.1565,2.1612,2.1641,2.1697,2.1742,2.1784,2.1805,2.1805,2.1806,2.1816,2.1813,2.1804,2.1808,2.1711,2.1804,2.1803,2.1803,2.1803,2.1802,2.134,2.1374,2.1413,2.1458,2.1487,2.1519,2.1553,2.1576,2.1616,2.1664,2.1671,2.1721,2.1755,2.1813,2.1835,2.1872,2.1863,2.1878,2.1881,2.1884,2.1886,2.1799,2.188,2.188,2.188,2.188,2.188,0,2.1417,2.1442,2.1484,2.1534,2.1569,2.1567,2.1605,2.1635,2.1679,2.1712,2.1748,2.1801,2.1843,2.187,2.1913,2.1937,2.1938,2.1948,2.1946,2.195,2.1892,2.1879,2.1946,2.1946,2.1946,2.1946,2.1946,2.1946,2.1462,2.1519,2.1532,2.1603,2.1627,2.1677,2.1699,2.1728,2.1754,2.1813,2.1849,2.1867,2.1897,2.1941,2.1979,2.1986,2.2001,2.2011,2.2017,2.1961,2.1954,2.1948,2.1936,2.2014,2.2014,2.2072,2.2072,2.2073]}]]